Location: Unspecified
(0.0000°N, 0.0000°E)
Time: 21:53:10
(UTC+00:00)

Envisat - Pass Details

Date: 24 May 2017
Orbit: 764 x 766 km, 98.2° (Epoch: 24 May)

Event Time Altitude Azimuth Distance (km) Brightness Sun altitude
Exits shadow 20:51:23 13° 337° (NNW) 2,071 5.6 -40.1°
Drops below altitude 10° 20:51:57 10° 338° (NNW) 2,291 5.9 -40.2°
Sets 20:54:16 0° 342° (NNW) 3,214 6.7 -40.8°
